Zurück zum Katalog

LEMUR 2 STELLA

AktivWetterSSO
NORAD 60533·PAYLOAD·🇺🇸 United States

Gestartet Aug 16, 2024 von Vandenberg Space Force Base

Loading…

Nächste Überflüge (nächste 24 Stunden)

TLE

AktuellSource: Space-Track

Epoche: Sep 13, 2026, 18:56 UTC

1 60533U 24149BT  26256.78930755  .00008684  00000-0  48912-3 0  9995
2 60533  97.6693 339.7182 0001682 100.1205 260.0216 15.13463352113890

Verfolge LEMUR 2 STELLA in Echtzeit mit AllMySat

Download on the App Store